Regional Weather Roundup
Issued by NWS State College, PA

Home | Current Version | Previous Version | Graphics & Text | Print | Product List | Glossary On
Versions: 1 2 3 4 5 6 7 8 9 10 11 12 13 14 15 16 17 18 19 20 21 22 23 24 25 26 27 28 29 30 31 32 33 34 35 36 37 38 39 40 41 42 43 44 45 46 47 48 49 50
000
ASUS41 KCTP 021703
RWRCTP

REGIONAL WEATHER ROUNDUP
NATIONAL WEATHER SERVICE STATE COLLEGE PA
1200 PM EST MON MAR 02 2015

Note: "fair" indicates few or no clouds below 12,000 feet with no
significant weather and/or obstructions to visibility.

* = STATION THAT DOES NOT REPORT PRECIPITATION /E.G. RAIN...SNOW...ETC/
    THUNDER OR FOG.

PAZ002>004-007>009-013>016-020>023-029>032-021800-
WESTERN PENNSYLVANIA

CITY           SKY/WX    TMP DP  RH WIND       PRES   REMARKS
ERIE           SUNNY     24  15  68 W16G24    30.41R WCI  11
MEADVILLE        N/A     24  11  57 W9        30.36R WCI  14
FRANKLIN*      PTSUNNY   23  10  58 W13G18    30.36S WCI  11
NEW CASTLE     PTSUNNY   25  13  60 W7        30.43R
BEAVER COUNTY  NOT AVBL
BUTLER*        MOSUNNY   25  16  68 NW8       30.42R
PITTSBURGH INT PTSUNNY   26  14  60 W13       30.42R WCI  15
PITTSBURGH     CLOUDY    26  12  55 W8        30.41R
INDIANA*       CLOUDY    25  18  74 W9G20     30.40R
LATROBE        FLURRIES  27  16  63 W13G18    30.42R
WASHINGTON CO* PTSUNNY   27  16  63 W7        30.44S
$$

PAZ004>006-010>012-017>019-024>028-033>037-041-042-045-046-049>053-021800-
CENTRAL PENNSYLVANIA

CITY           SKY/WX    TMP DP  RH WIND       PRES   REMARKS
BRADFORD       LGT SNOW  20  11  68 NW17      30.23R WCI   5
DUBOIS         CLOUDY    22  14  71 W16       30.29R WCI   8
CLEARFIELD     CLOUDY    25  14  63 W12G22    30.30R WCI  14
JOHNSTOWN      LGT SNOW  23  14  68 W28G38    30.25F WCI   6
ALTOONA        MOSUNNY   27  14  58 NW18G28   30.29R WCI  14
STATE COLLEGE  PTSUNNY   27  16  63 NW20G29   30.29S WCI  13
WILLIAMSPORT   MOSUNNY   32  13  45 W17G28    30.26R
SELINSGROVE    SUNNY     33  14  45 W14G21    30.28S
FT INDIANTOWN  SUNNY     33  12  42 W10G25    30.25S
CAPITAL CITY   SUNNY     34  13  41 NW17G30   30.28R
HARRISBURG     SUNNY     33  15  47 NW25G31   30.28
YORK           SUNNY     34  17  50 NW15G21   30.28
$$

PAZ038>040-043-044-047-048-054-055-060>062-067>071-021800-
EASTERN PENNSYLVANIA

CITY           SKY/WX    TMP DP  RH WIND       PRES   REMARKS
SCRANTON       MIX PCPN  31  12  45 NW13      30.18S
MOUNT POCONO   MIX PCPN  26  10  50 NW24G33   30.08R WCI  11
ALLENTOWN      SUNNY     34  13  41 NW16G32   30.20S
QUAKERTOWN*    SUNNY     32  14  47 NW14G23   30.20S
READING        LGT RAIN  33  17  51 NW21      30.24R
LANCASTER      SUNNY     33  15  47 NW20G31   30.25R
COATESVILLE    SUNNY     34  23  64 NW13G28   30.22R
POTTSTOWN      SUNNY     34  16  47 NW13G22   30.23R
BLUE BELL      MOSUNNY   36  23  60 NW12G21   30.20S
DOYLESTOWN     MOSUNNY   33  19  56 NW12G17   30.18R
WILLOW GROVE   NOT AVBL
NORTH PHILA    MOSUNNY   38  19  46 NW17G24   30.23R
PHILADELPHIA   MOSUNNY   38  20  48 NW17G29   30.23R
$$


USA.gov is the U.S. government's official web portal to all federal, state and local government web resources and services.